NOAA 16 DEB, 41263

Orbit data source: Space-Track

NOAA 16 DEB, 41263 is space debris in SSO originally from a launch on Thu, 21 Sep 2000 UTC launched from the Air Force Western Test Range (AFWTR). Debris objects in space refer to the collection of defunct objects orbiting the Earth. Examples of debris include non-operational satellites, rocket bodies, and fragments generated from explosions, collisions, or faulty payload assembly.

Loading next visibility...
Identifier
41263, 2000-055FP
Orbit
SSO
Country
Flag of USUS
Related business
Manufacturer
Unknown
Mission
Spacecraft
Bus & Motor
Unknown
Mass
Unknown
Launch date (UTC)
2000-09-21 (26 years ago)
Launch vehicle
Unknown
Launch site
Air Force Western Test Range (AFWTR)
Object type
Payload
Rocket body
Debris
Shape & HBR
Unknown shape, 0.1 m
Radar Cross Section
Small (<0.1 m²)

Expand to show TLE details & history
Last TLE update: 4 days ago

TLE from 4 days ago
0 NOAA 16 DEB
1 41263U 00055FP  26122.33959511  .00005567  00000-0  27445-2 0  9992
2 41263  98.8286 143.6291 0067382 187.7101 172.3044 14.16706568529142
Epoch: 2026-05-02T08:09Z
TLE epoch observation values (Epoch: 2026-05-02T08:09:01.017Z)
Latitude
0.00004°
Longitude
161.11594°
Altitude
887.61 km
Speed
7.384 km/s
True Right ascension
09h 34m 30s
True Declination
0° 00' 00"
Sunlit
Object was in daylight at epoch
Visualization orbit readout
Latitude
Unknown
Longitude
Unknown
Altitude
Unknown
Speed
Unknown
Apparent Right ascension
Unknown
Apparent Declination
Unknown
Sunlit
N/A
Visualization observer readout
Local Sidereal Time
03:47:00
Azimuth
Unknown
Elevation
Unknown
Doppler factor
Unknown
Orbital elements
Apogee altitude
882.276 km
Perigee altitude
785.086 km
Semi-major axis
7,211.818 km
Eccentricity
0.00674
Inclination
98.8286°
RAAN
143.6291°
Arg. of periapsis
187.7101°
True anomaly
172.40694°
Mean anomaly
172.3044°
Eccentric anomaly
172.35576°
Mean motion
3.54386 °/min
Orbital period
101.58 mins
BSTAR
0.0027445
Loading maneuver chart data...
Computing Atmospheric mass density...
Loading historical data...
Loading historical data...
Loading historical data...
Loading historical data...
Loading historical data...
Loading historical data...
Loading historical data...

Documentation

Showing up to 5 results
|